Location: Shenandoah County Park
(38.9356°N, 78.4524°W)
Time: 18:26:36
(UTC-05:00)

BlueWalker 3 - Pass Details

Date: 07 December 2022
Orbit: 499 x 517 km, 53.2° (Epoch: 28 January)

Event Time Altitude Azimuth Distance (km) Brightness Sun altitude
Rises 17:19:01 0° 317° (NW) 2,632 5.8 -5.6°
Reaches altitude 10° 17:22:19 10° 346° (NNW) 1,738 4.6 -6.2°
Maximum altitude 17:24:11 13° 15° (NNE) 1,556 4.1 -6.5°
Drops below altitude 10° 17:26:02 10° 43° (NE) 1,730 4.1 -6.9°
Enters shadow 17:26:45 - 52° (NE) 1,876 4.2 -7.0°
